Weather History for CYYJ - December, 2013

Change the Weather History Date:

Monday, December 16, 2013

  Actual Average Record
Temperature  
Mean Temperature 40 °F -  
Max Temperature 47 °F 44 °F 53 °F (1999)
Min Temperature 32 °F 33 °F 17 °F (2008)
Degree Days  
Heating Degree Days 26    
Moisture  
Dew Point 38 °F    
Average Humidity 93    
Maximum Humidity 100    
Minimum Humidity 75    
Precipitation  
Precipitation 0.00 in 0.19 in - ()
Sea Level Pressure  
Sea Level Pressure 30.41 in    
Wind  
Wind Speed 6 mph ()    
Max Wind Speed 14 mph    
Max Gust Speed -    
Visibility 14.2 miles    
Events      
Averages and records for this station are not official NWS values.
T = Trace of Precipitation, MM = Missing Value Source: Averaged Metar Reports

Daily Weather History Graph

Daily Weather History Graph

Search for Another Location

Airport or City:

Trip Planner

Search our weather history database for the weather conditions in past years. The results will help you decide how hot, cold, wet, or windy it might be!

Date:

Astronomy

Dec. 16, 2013 Rise Set
Actual Time 8:00 AM PST 4:18 PM PST
Civil Twilight 7:23 AM PST 4:55 PM PST
Nautical Twilight 6:43 AM PST 5:35 PM PST
Astronomical Twilight 6:05 AM PST 6:14 PM PST
Moon 4:18 PM PST (12/16) 7:08 AM PST (12/16)
Length of Visible Light 9h 31m
Length of Day
8h 17m
Full, 100% of the Moon is Illuminated
Dec 16
Full
Dec 17
Full
Dec 25
Last Quarter
Jan 1
New
Jan 7
First Quarter

Hourly Weather History & Observations

Time (PST) Temp. Windchill Dew Point Humidity Pressure Visibility Wind Dir Wind Speed Gust Speed Precip Events Conditions
12:00 AM 42.8 °F 36.2 °F 37.4 °F 81% 30.44 in 30.0 mi WNW 12.7 mph - N/A   Partly Cloudy
1:00 AM 42.8 °F 36.6 °F 37.4 °F 81% 30.44 in 30.0 mi West 11.5 mph - N/A   Partly Cloudy
2:00 AM 41.0 °F 34.7 °F 35.6 °F 81% 30.45 in 30.0 mi WNW 10.4 mph - N/A   Partly Cloudy
3:00 AM 42.8 °F 35.8 °F 37.4 °F 81% 30.46 in 30.0 mi West 13.8 mph - N/A   Clear
4:00 AM 42 °F - 37 °F 75% 30.45 in 28 mi West 9.2 mph - -   Scattered Clouds
4:00 AM 41.0 °F 35.8 °F 37.4 °F 87% 30.45 in 30.0 mi WNW 8.1 mph - N/A   Partly Cloudy
4:44 AM 35.6 °F 30.7 °F 33.8 °F 93% 30.45 in 30.0 mi WSW 5.8 mph - N/A   Partly Cloudy
5:00 AM 39.2 °F 34.2 °F 37.4 °F 93% 30.45 in 30.0 mi West 6.9 mph - N/A   Partly Cloudy
6:00 AM 35.6 °F 30.7 °F 33.8 °F 93% 30.45 in 30.0 mi WSW 5.8 mph - N/A   Partly Cloudy
7:00 AM 35.6 °F - 33.8 °F 93% 30.46 in 30.0 mi Variable 2.3 mph - N/A   Partly Cloudy
8:00 AM 33.8 °F 29.6 °F 33.8 °F 100% 30.47 in 30.0 mi West 4.6 mph - N/A   Mostly Cloudy
9:00 AM 33.8 °F - 33.8 °F 100% 30.48 in 30.0 mi Calm Calm - N/A   Mostly Cloudy
10:00 AM 41 °F - 39 °F 92% 30.49 in 19 mi West 1.2 mph - -   Scattered Clouds
10:00 AM 41.0 °F - 39.2 °F 93% 30.48 in 20.0 mi Calm Calm - N/A   Mostly Cloudy
10:16 AM 41.0 °F - 39.2 °F 93% 30.48 in 20.0 mi Calm Calm - N/A   Mostly Cloudy
10:27 AM 42.8 °F - 39.2 °F 87% 30.48 in 20.0 mi Variable 2.3 mph - N/A   Mostly Cloudy
11:00 AM 42.8 °F 41.1 °F 41.0 °F 93% 30.48 in 20.0 mi WNW 3.5 mph - N/A   Mostly Cloudy
12:00 PM 44.6 °F - 41.0 °F 87% 30.47 in 20.0 mi West 2.3 mph - N/A   Mostly Cloudy
1:00 PM 46.4 °F 44.3 °F 42.8 °F 87% 30.45 in 20.0 mi East 4.6 mph - N/A   Mostly Cloudy
2:00 PM 46.4 °F 44.3 °F 42.8 °F 87% 30.45 in 20.0 mi ESE 4.6 mph - N/A   Mostly Cloudy
3:00 PM 46.4 °F 43.5 °F 42.8 °F 87% 30.42 in 20.0 mi East 5.8 mph - N/A   Mostly Cloudy
4:00 PM 45 °F - 43 °F 90% 30.42 in 19 mi ENE 5.8 mph - -   Partly Cloudy
4:00 PM 44.6 °F 41.4 °F 42.8 °F 93% 30.42 in 20.0 mi NE 5.8 mph - N/A   Mostly Cloudy
5:00 PM 42.8 °F 39.3 °F 41.0 °F 93% 30.41 in 20.0 mi North 5.8 mph - N/A   Mostly Cloudy
5:45 PM 41.0 °F - 41.0 °F 100% 30.40 in 20.0 mi Calm Calm - N/A   Overcast
6:00 PM 39.2 °F - 39.2 °F 100% 30.38 in 20.0 mi SW 2.3 mph - N/A   Overcast
7:00 PM 41.0 °F 39.0 °F 41.0 °F 100% 30.37 in 20.0 mi West 3.5 mph - N/A   Mostly Cloudy
8:00 PM 39.2 °F - 39.2 °F 100% 30.35 in 20.0 mi WSW 2.3 mph - N/A   Overcast
8:11 PM 41.0 °F - 41.0 °F 100% 30.34 in 20.0 mi WSW 2.3 mph - N/A   Mostly Cloudy
9:00 PM 37.4 °F - 37.4 °F 100% 30.34 in 2.0 mi WSW 2.3 mph - N/A   Scattered Clouds
9:12 PM 39.2 °F - 39.2 °F 100% 30.33 in 1.0 mi WSW 2.3 mph - N/A   Scattered Clouds
9:38 PM 35.6 °F 32.8 °F 35.6 °F 100% 30.32 in 2.0 mi WSW 3.5 mph - N/A   Partly Cloudy
10:00 PM 35 °F - 35 °F 100% 30.32 in 2 mi WSW 4.6 mph - -   Mist
10:00 PM 35.6 °F 31.7 °F 35.6 °F 100% 30.32 in 2.0 mi SW 4.6 mph - N/A   Scattered Clouds
10:27 PM 35.6 °F 32.8 °F 35.6 °F 100% 30.31 in 3.0 mi SSW 3.5 mph - N/A   Mostly Cloudy
11:00 PM 35.6 °F 31.7 °F 35.6 °F 100% 30.29 in 3.0 mi WSW 4.6 mph - N/A   Mostly Cloudy
11:18 PM 33.8 °F 30.8 °F 33.8 °F 100% 30.29 in 0.8 mi WSW 3.5 mph - N/A   Mostly Cloudy